Year,Month,Day,Hour,Minute,Value (Times are PST for temperature in C)
2012,09,01,00,00,10.70
2012,09,01,00,01,10.70
2012,09,01,00,02,10.70
2012,09,01,00,03,10.70
2012,09,01,00,04,10.70
2012,09,01,00,05,10.70
2012,09,01,00,06,10.70
2012,09,01,00,07,10.60
2012,09,01,00,08,10.60
2012,09,01,00,09,10.60
2012,09,01,00,10,10.60
2012,09,01,00,11,10.60
2012,09,01,00,12,10.60
2012,09,01,00,13,10.60
2012,09,01,00,14,10.60
2012,09,01,00,15,10.60
2012,09,01,00,16,10.60
2012,09,01,00,17,10.60
2012,09,01,00,18,10.60
2012,09,01,00,19,10.60
2012,09,01,00,20,10.60
2012,09,01,00,21,10.60
2012,09,01,00,22,10.60
2012,09,01,00,23,10.60
2012,09,01,00,24,10.60
2012,09,01,00,25,10.60
2012,09,01,00,26,10.60
2012,09,01,00,27,10.60
2012,09,01,00,28,10.60
2012,09,01,00,29,10.60
2012,09,01,00,30,10.60
2012,09,01,00,31,10.60
2012,09,01,00,32,10.60
2012,09,01,00,33,10.60
2012,09,01,00,34,10.60
2012,09,01,00,35,10.60
2012,09,01,00,36,10.60
2012,09,01,00,37,10.60
2012,09,01,00,38,10.60
2012,09,01,00,39,10.60
2012,09,01,00,40,10.60
2012,09,01,00,41,10.60
2012,09,01,00,42,10.60
2012,09,01,00,43,10.60
2012,09,01,00,44,10.60
2012,09,01,00,45,10.60
2012,09,01,00,46,10.60
2012,09,01,00,47,10.60
2012,09,01,00,48,10.60
2012,09,01,00,49,10.60
2012,09,01,00,50,10.60
2012,09,01,00,51,10.60
2012,09,01,00,52,10.60
2012,09,01,00,53,10.60
2012,09,01,00,54,10.60
2012,09,01,00,55,10.60
2012,09,01,00,56,10.60
2012,09,01,00,57,10.60
2012,09,01,00,58,10.60
2012,09,01,00,59,10.60
2012,09,01,01,00,10.60
2012,09,01,01,01,10.60
2012,09,01,01,02,10.60
2012,09,01,01,03,10.60
2012,09,01,01,04,10.60
2012,09,01,01,05,10.60
2012,09,01,01,06,10.50
2012,09,01,01,07,10.50
2012,09,01,01,08,10.50
2012,09,01,01,09,10.50
2012,09,01,01,10,10.50
2012,09,01,01,11,10.50
2012,09,01,01,12,10.50
2012,09,01,01,13,10.50
2012,09,01,01,14,10.50
2012,09,01,01,15,10.60
2012,09,01,01,16,10.60
2012,09,01,01,17,10.60
2012,09,01,01,18,10.60
2012,09,01,01,19,10.60
2012,09,01,01,20,10.60
2012,09,01,01,21,10.60
2012,09,01,01,22,10.60
2012,09,01,01,23,10.60
2012,09,01,01,24,10.60
2012,09,01,01,25,10.60
2012,09,01,01,26,10.60
2012,09,01,01,27,10.60
2012,09,01,01,28,10.60
2012,09,01,01,29,10.60
2012,09,01,01,30,10.60
2012,09,01,01,31,10.60
2012,09,01,01,32,10.60
2012,09,01,01,33,10.60
2012,09,01,01,34,10.60
2012,09,01,01,35,10.60
2012,09,01,01,36,10.60
2012,09,01,01,37,10.60
2012,09,01,01,38,10.60
2012,09,01,01,39,10.60
2012,09,01,01,40,10.60
2012,09,01,01,41,10.60
2012,09,01,01,42,10.60
2012,09,01,01,43,10.60
2012,09,01,01,44,10.60
2012,09,01,01,45,10.60
2012,09,01,01,46,10.70
2012,09,01,01,47,10.70
2012,09,01,01,48,10.70
2012,09,01,01,49,10.70
2012,09,01,01,50,10.70
2012,09,01,01,51,10.70
2012,09,01,01,52,10.70
2012,09,01,01,53,10.70
2012,09,01,01,54,10.70
2012,09,01,01,55,10.70
2012,09,01,01,56,10.70
2012,09,01,01,57,10.60
2012,09,01,01,58,10.60
2012,09,01,01,59,10.60
2012,09,01,02,00,10.60
2012,09,01,02,01,10.60
2012,09,01,02,02,10.50
2012,09,01,02,03,10.50
2012,09,01,02,04,10.50
2012,09,01,02,05,10.50
2012,09,01,02,06,10.40
2012,09,01,02,07,10.40
2012,09,01,02,08,10.40
2012,09,01,02,09,10.40
2012,09,01,02,10,10.40
2012,09,01,02,11,10.40
2012,09,01,02,12,10.40
2012,09,01,02,13,10.40
2012,09,01,02,14,10.30
2012,09,01,02,15,10.30
2012,09,01,02,16,10.30
2012,09,01,02,17,10.30
2012,09,01,02,18,10.30
2012,09,01,02,19,10.30
2012,09,01,02,20,10.30
2012,09,01,02,21,10.30
2012,09,01,02,22,10.30
2012,09,01,02,23,10.30
2012,09,01,02,24,10.30
2012,09,01,02,25,10.30
2012,09,01,02,26,10.30
2012,09,01,02,27,10.30
2012,09,01,02,28,10.30
2012,09,01,02,29,10.30
2012,09,01,02,30,10.30
2012,09,01,02,31,10.30
2012,09,01,02,32,10.30
2012,09,01,02,33,10.30
2012,09,01,02,34,10.30
2012,09,01,02,35,10.30
2012,09,01,02,36,10.30
2012,09,01,02,37,10.20
2012,09,01,02,38,10.20
2012,09,01,02,39,10.20
2012,09,01,02,40,10.20
2012,09,01,02,41,10.20
2012,09,01,02,42,10.20
2012,09,01,02,43,10.20
2012,09,01,02,44,10.20
2012,09,01,02,45,10.20
2012,09,01,02,46,10.20
2012,09,01,02,47,10.30
2012,09,01,02,48,10.30
2012,09,01,02,49,10.30
2012,09,01,02,50,10.30
2012,09,01,02,51,10.30
2012,09,01,02,52,10.30
2012,09,01,02,53,10.30
2012,09,01,02,54,10.30
2012,09,01,02,55,10.30
2012,09,01,02,56,10.30
2012,09,01,02,57,10.30
2012,09,01,02,58,10.30
2012,09,01,02,59,10.30
2012,09,01,03,00,10.30
2012,09,01,03,01,10.30
2012,09,01,03,02,10.30
2012,09,01,03,03,10.30
2012,09,01,03,04,10.30
2012,09,01,03,05,10.30
2012,09,01,03,06,10.30
2012,09,01,03,07,10.30
2012,09,01,03,08,10.30
2012,09,01,03,09,10.30
2012,09,01,03,10,10.30
2012,09,01,03,11,10.30
2012,09,01,03,12,10.30
2012,09,01,03,13,10.30
2012,09,01,03,14,10.30
2012,09,01,03,15,10.30
2012,09,01,03,16,10.30
2012,09,01,03,17,10.30
2012,09,01,03,18,10.20
2012,09,01,03,19,10.20
2012,09,01,03,20,10.20
2012,09,01,03,21,10.20
2012,09,01,03,22,10.20
2012,09,01,03,23,10.20
2012,09,01,03,24,10.20
2012,09,01,03,25,10.20
2012,09,01,03,26,10.20
2012,09,01,03,27,10.20
2012,09,01,03,28,10.20
2012,09,01,03,29,10.30
2012,09,01,03,30,10.30
2012,09,01,03,31,10.30
2012,09,01,03,32,10.30
2012,09,01,03,33,10.30
2012,09,01,03,34,10.30
2012,09,01,03,35,10.30
2012,09,01,03,36,10.30
2012,09,01,03,37,10.30
2012,09,01,03,38,10.30
2012,09,01,03,39,10.30
2012,09,01,03,40,10.30
2012,09,01,03,41,10.30
2012,09,01,03,42,10.30
2012,09,01,03,43,10.30
2012,09,01,03,44,10.20
2012,09,01,03,45,10.20
2012,09,01,03,46,10.20
2012,09,01,03,47,10.20
2012,09,01,03,48,10.20
2012,09,01,03,49,10.20
2012,09,01,03,50,10.20
2012,09,01,03,51,10.20
2012,09,01,03,52,10.20
2012,09,01,03,53,10.20
2012,09,01,03,54,10.20
2012,09,01,03,55,10.20
2012,09,01,03,56,10.20
2012,09,01,03,57,10.20
2012,09,01,03,58,10.20
2012,09,01,03,59,10.20
2012,09,01,04,00,10.20
2012,09,01,04,01,10.20
2012,09,01,04,02,10.10
2012,09,01,04,03,10.10
2012,09,01,04,04,10.10
2012,09,01,04,05,10.10
2012,09,01,04,06,10.10
2012,09,01,04,07,10.10
2012,09,01,04,08,10.10
2012,09,01,04,09,10.00
2012,09,01,04,10,10.00
2012,09,01,04,11,10.00
2012,09,01,04,12,10.00
2012,09,01,04,13,9.90
2012,09,01,04,14,9.90
2012,09,01,04,15,9.90
2012,09,01,04,16,9.90
2012,09,01,04,17,9.90
2012,09,01,04,18,9.90
2012,09,01,04,19,9.90
2012,09,01,04,20,9.90
2012,09,01,04,21,9.90
2012,09,01,04,22,9.90
2012,09,01,04,23,9.90
2012,09,01,04,24,9.90
2012,09,01,04,25,9.90
2012,09,01,04,26,9.90
2012,09,01,04,27,9.90
2012,09,01,04,28,9.90
2012,09,01,04,29,9.90
2012,09,01,04,30,9.90
2012,09,01,04,31,9.90
2012,09,01,04,32,9.90
2012,09,01,04,33,9.90
2012,09,01,04,34,9.90
2012,09,01,04,35,9.90
2012,09,01,04,36,9.90
2012,09,01,04,37,9.90
2012,09,01,04,38,9.90
2012,09,01,04,39,9.80
2012,09,01,04,40,9.80
2012,09,01,04,41,9.80
2012,09,01,04,42,9.80
2012,09,01,04,43,9.80
2012,09,01,04,44,9.80
2012,09,01,04,45,9.80
2012,09,01,04,46,9.80
2012,09,01,04,47,9.70
2012,09,01,04,48,9.70
2012,09,01,04,49,9.70
2012,09,01,04,50,9.70
2012,09,01,04,51,9.70
2012,09,01,04,52,9.70
2012,09,01,04,53,9.70
2012,09,01,04,54,9.70
2012,09,01,04,55,9.70
2012,09,01,04,56,9.70
2012,09,01,04,57,9.70
2012,09,01,04,58,9.70
2012,09,01,04,59,9.60
2012,09,01,05,00,9.60
2012,09,01,05,01,9.60
2012,09,01,05,02,9.60
2012,09,01,05,03,9.60
2012,09,01,05,04,9.60
2012,09,01,05,05,9.60
2012,09,01,05,06,9.50
2012,09,01,05,07,9.50
2012,09,01,05,08,9.50
2012,09,01,05,09,9.50
2012,09,01,05,10,9.40
2012,09,01,05,11,9.40
2012,09,01,05,12,9.40
2012,09,01,05,13,9.40
2012,09,01,05,14,9.30
2012,09,01,05,15,9.30
2012,09,01,05,16,9.20
2012,09,01,05,17,9.20
2012,09,01,05,18,9.10
2012,09,01,05,19,9.10
2012,09,01,05,20,9.10
2012,09,01,05,21,9.00
2012,09,01,05,22,9.00
2012,09,01,05,23,8.90
2012,09,01,05,24,8.90
2012,09,01,05,25,8.80
2012,09,01,05,26,8.80
2012,09,01,05,27,8.70
2012,09,01,05,28,8.70
2012,09,01,05,29,8.70
2012,09,01,05,30,8.70
2012,09,01,05,31,8.60
2012,09,01,05,32,8.60
2012,09,01,05,33,8.50
2012,09,01,05,34,8.50
2012,09,01,05,35,8.50
2012,09,01,05,36,8.40
2012,09,01,05,37,8.40
2012,09,01,05,38,8.40
2012,09,01,05,39,8.40
2012,09,01,05,40,8.40
2012,09,01,05,41,8.40
2012,09,01,05,42,8.40
2012,09,01,05,43,8.40
2012,09,01,05,44,8.30
2012,09,01,05,45,8.30
2012,09,01,05,46,8.30
2012,09,01,05,47,8.30
2012,09,01,05,48,8.30
2012,09,01,05,49,8.30
2012,09,01,05,50,8.30
2012,09,01,05,51,8.30
2012,09,01,05,52,8.30
2012,09,01,05,53,8.30
2012,09,01,05,54,8.30
2012,09,01,05,55,8.30
2012,09,01,05,56,8.30
2012,09,01,05,57,8.30
2012,09,01,05,58,8.40
2012,09,01,05,59,8.40
2012,09,01,06,00,8.40
2012,09,01,06,01,8.40
2012,09,01,06,02,8.40
2012,09,01,06,03,8.40
2012,09,01,06,04,8.40
2012,09,01,06,05,8.40
2012,09,01,06,06,8.40
2012,09,01,06,07,8.40
2012,09,01,06,08,8.40
2012,09,01,06,09,8.40
2012,09,01,06,10,8.40
2012,09,01,06,11,8.40
2012,09,01,06,12,8.40
2012,09,01,06,13,8.40
2012,09,01,06,14,8.40
2012,09,01,06,15,8.40
2012,09,01,06,16,8.40
2012,09,01,06,17,8.40
2012,09,01,06,18,8.40
2012,09,01,06,19,8.40
2012,09,01,06,20,8.40
2012,09,01,06,21,8.40
2012,09,01,06,22,8.40
2012,09,01,06,23,8.40
2012,09,01,06,24,8.40
2012,09,01,06,25,8.40
2012,09,01,06,26,8.40
2012,09,01,06,27,8.40
2012,09,01,06,28,8.40
2012,09,01,06,29,8.40
2012,09,01,06,30,8.40
2012,09,01,06,31,8.40
2012,09,01,06,32,8.40
2012,09,01,06,33,8.40
2012,09,01,06,34,8.40
2012,09,01,06,35,8.30
2012,09,01,06,36,8.30
2012,09,01,06,37,8.30
2012,09,01,06,38,8.20
2012,09,01,06,39,8.20
2012,09,01,06,40,8.20
2012,09,01,06,41,8.20
2012,09,01,06,42,8.20
2012,09,01,06,43,8.20
2012,09,01,06,44,8.20
2012,09,01,06,45,8.20
2012,09,01,06,46,8.20
2012,09,01,06,47,8.20
2012,09,01,06,48,8.20
2012,09,01,06,49,8.20
2012,09,01,06,50,8.20
2012,09,01,06,51,8.20
2012,09,01,06,52,8.20
2012,09,01,06,53,8.20
2012,09,01,06,54,8.20
2012,09,01,06,55,8.30
2012,09,01,06,56,8.30
2012,09,01,06,57,8.30
2012,09,01,06,58,8.30
2012,09,01,06,59,8.30
2012,09,01,07,00,8.30
2012,09,01,07,01,8.30
2012,09,01,07,02,8.40
2012,09,01,07,03,8.40
2012,09,01,07,04,8.40
2012,09,01,07,05,8.40
2012,09,01,07,06,8.50
2012,09,01,07,07,8.50
2012,09,01,07,08,8.50
2012,09,01,07,09,8.50
2012,09,01,07,10,8.60
2012,09,01,07,11,8.60
2012,09,01,07,12,8.60
2012,09,01,07,13,8.60
2012,09,01,07,14,8.70
2012,09,01,07,15,8.70
2012,09,01,07,16,8.70
2012,09,01,07,17,8.70
2012,09,01,07,18,8.70
2012,09,01,07,19,8.70
2012,09,01,07,20,8.70
2012,09,01,07,21,8.70
2012,09,01,07,22,8.70
2012,09,01,07,23,8.70
2012,09,01,07,24,8.80
2012,09,01,07,25,8.80
2012,09,01,07,26,8.80
2012,09,01,07,27,8.80
2012,09,01,07,28,8.80
2012,09,01,07,29,8.90
2012,09,01,07,30,8.90
2012,09,01,07,31,8.90
2012,09,01,07,32,9.00
2012,09,01,07,33,9.10
2012,09,01,07,34,9.10
2012,09,01,07,35,9.10
2012,09,01,07,36,9.20
2012,09,01,07,37,9.20
2012,09,01,07,38,9.20
2012,09,01,07,39,9.30
2012,09,01,07,40,9.30
2012,09,01,07,41,9.30
2012,09,01,07,42,9.40
2012,09,01,07,43,9.40
2012,09,01,07,44,9.50
2012,09,01,07,45,9.50
2012,09,01,07,46,9.50
2012,09,01,07,47,9.60
2012,09,01,07,48,9.60
2012,09,01,07,49,9.60
2012,09,01,07,50,9.70
2012,09,01,07,51,9.70
2012,09,01,07,52,9.80
2012,09,01,07,53,9.80
2012,09,01,07,54,9.80
2012,09,01,07,55,9.90
2012,09,01,07,56,9.90
2012,09,01,07,57,10.00
2012,09,01,07,58,10.10
2012,09,01,07,59,10.10
2012,09,01,08,00,10.20
2012,09,01,08,01,10.20
2012,09,01,08,02,10.20
2012,09,01,08,03,10.30
2012,09,01,08,04,10.30
2012,09,01,08,05,10.30
2012,09,01,08,06,10.30
2012,09,01,08,07,10.40
2012,09,01,08,08,10.40
2012,09,01,08,09,10.40
2012,09,01,08,10,10.40
2012,09,01,08,11,10.50
2012,09,01,08,12,10.50
2012,09,01,08,13,10.60
2012,09,01,08,14,10.60
2012,09,01,08,15,10.60
2012,09,01,08,16,10.70
2012,09,01,08,17,10.70
2012,09,01,08,18,10.70
2012,09,01,08,19,10.70
2012,09,01,08,20,10.80
2012,09,01,08,21,10.80
2012,09,01,08,22,10.80
2012,09,01,08,23,10.90
2012,09,01,08,24,10.90
2012,09,01,08,25,10.90
2012,09,01,08,26,10.90
2012,09,01,08,27,10.90
2012,09,01,08,28,10.90
2012,09,01,08,29,11.00
2012,09,01,08,30,11.00
2012,09,01,08,31,11.00
2012,09,01,08,32,11.10
2012,09,01,08,33,11.10
2012,09,01,08,34,11.10
2012,09,01,08,35,11.20
2012,09,01,08,36,11.20
2012,09,01,08,37,11.20
2012,09,01,08,38,11.20
2012,09,01,08,39,11.30
2012,09,01,08,40,11.30
2012,09,01,08,41,11.30
2012,09,01,08,42,11.30
2012,09,01,08,43,11.40
2012,09,01,08,44,11.40
2012,09,01,08,45,11.40
2012,09,01,08,46,11.40
2012,09,01,08,47,11.40
2012,09,01,08,48,11.40
2012,09,01,08,49,11.40
2012,09,01,08,50,11.40
2012,09,01,08,51,11.40
2012,09,01,08,52,11.40
2012,09,01,08,53,11.40
2012,09,01,08,54,11.50
2012,09,01,08,55,11.50
2012,09,01,08,56,11.50
2012,09,01,08,57,11.50
2012,09,01,08,58,11.50
2012,09,01,08,59,11.60
2012,09,01,09,00,11.60
2012,09,01,09,01,11.60
2012,09,01,09,02,11.60
2012,09,01,09,03,11.60
2012,09,01,09,04,11.60
2012,09,01,09,05,11.60
2012,09,01,09,06,11.60
2012,09,01,09,07,11.60
2012,09,01,09,08,11.60
2012,09,01,09,09,11.70
2012,09,01,09,10,11.70
2012,09,01,09,11,11.70
2012,09,01,09,12,11.70
2012,09,01,09,13,11.70
2012,09,01,09,14,11.70
2012,09,01,09,15,11.70
2012,09,01,09,16,11.70
2012,09,01,09,17,11.80
2012,09,01,09,18,11.80
2012,09,01,09,19,11.80
2012,09,01,09,20,11.80
2012,09,01,09,21,11.90
2012,09,01,09,22,11.90
2012,09,01,09,23,12.00
2012,09,01,09,24,12.00
2012,09,01,09,25,12.00
2012,09,01,09,26,12.00
2012,09,01,09,27,12.10
2012,09,01,09,28,12.10
2012,09,01,09,29,12.10
2012,09,01,09,30,12.10
2012,09,01,09,31,12.10
2012,09,01,09,32,12.10
2012,09,01,09,33,12.10
2012,09,01,09,34,12.20
2012,09,01,09,35,12.20
2012,09,01,09,36,12.20
2012,09,01,09,37,12.20
2012,09,01,09,38,12.20
2012,09,01,09,39,12.20
2012,09,01,09,40,12.30
2012,09,01,09,41,12.30
2012,09,01,09,42,12.30
2012,09,01,09,43,12.30
2012,09,01,09,44,12.30
2012,09,01,09,45,12.30
2012,09,01,09,46,12.40
2012,09,01,09,47,12.40
2012,09,01,09,48,12.40
2012,09,01,09,49,12.40
2012,09,01,09,50,12.40
2012,09,01,09,51,12.50
2012,09,01,09,52,12.50
2012,09,01,09,53,12.60
2012,09,01,09,54,12.60
2012,09,01,09,55,12.60
2012,09,01,09,56,12.60
2012,09,01,09,57,12.60
2012,09,01,09,58,12.70
2012,09,01,09,59,12.70
2012,09,01,10,00,12.70
2012,09,01,10,01,12.70
2012,09,01,10,02,12.70
2012,09,01,10,03,12.70
2012,09,01,10,04,12.70
2012,09,01,10,05,12.80
2012,09,01,10,06,12.80
2012,09,01,10,07,12.80
2012,09,01,10,08,12.80
2012,09,01,10,09,12.80
2012,09,01,10,10,12.80
2012,09,01,10,11,12.80
2012,09,01,10,12,12.80
2012,09,01,10,13,12.90
2012,09,01,10,14,12.90
2012,09,01,10,15,12.90
2012,09,01,10,16,12.90
2012,09,01,10,17,12.90
2012,09,01,10,18,12.90
2012,09,01,10,19,12.90
2012,09,01,10,20,13.00
2012,09,01,10,21,13.00
2012,09,01,10,22,13.00
2012,09,01,10,23,13.00
2012,09,01,10,24,13.10
2012,09,01,10,25,13.10
2012,09,01,10,26,13.10
2012,09,01,10,27,13.10
2012,09,01,10,28,13.20
2012,09,01,10,29,13.20
2012,09,01,10,30,13.20
2012,09,01,10,31,13.20
2012,09,01,10,32,13.20
2012,09,01,10,33,13.20
2012,09,01,10,34,13.20
2012,09,01,10,35,13.20
2012,09,01,10,36,13.20
2012,09,01,10,37,13.20
2012,09,01,10,38,13.10
2012,09,01,10,39,13.10
2012,09,01,10,40,13.10
2012,09,01,10,41,13.10
2012,09,01,10,42,13.10
2012,09,01,10,43,13.00
2012,09,01,10,44,13.00
2012,09,01,10,45,13.10
2012,09,01,10,46,13.10
2012,09,01,10,47,13.10
2012,09,01,10,48,13.10
2012,09,01,10,49,13.10
2012,09,01,10,50,13.10
2012,09,01,10,51,13.10
2012,09,01,10,52,13.10
2012,09,01,10,53,13.10
2012,09,01,10,54,13.10
2012,09,01,10,55,13.10
2012,09,01,10,56,13.10
2012,09,01,10,57,13.10
2012,09,01,10,58,13.20
2012,09,01,10,59,13.20
2012,09,01,11,00,13.30
2012,09,01,11,01,13.30
2012,09,01,11,02,13.30
2012,09,01,11,03,13.30
2012,09,01,11,04,13.30
2012,09,01,11,05,13.30
2012,09,01,11,06,13.30
2012,09,01,11,07,13.30
2012,09,01,11,08,13.30
2012,09,01,11,09,13.30
2012,09,01,11,10,13.30
2012,09,01,11,11,13.40
2012,09,01,11,12,13.40
2012,09,01,11,13,13.40
2012,09,01,11,14,13.40
2012,09,01,11,15,13.40
2012,09,01,11,16,13.40
2012,09,01,11,17,13.40
2012,09,01,11,18,13.40
2012,09,01,11,19,13.50
2012,09,01,11,20,13.60
2012,09,01,11,21,13.60
2012,09,01,11,22,13.60
2012,09,01,11,23,13.60
2012,09,01,11,24,13.60
2012,09,01,11,25,13.60
2012,09,01,11,26,13.60
2012,09,01,11,27,13.50
2012,09,01,11,28,13.50
2012,09,01,11,29,13.50
2012,09,01,11,30,13.40
2012,09,01,11,31,13.40
2012,09,01,11,32,13.40
2012,09,01,11,33,13.40
2012,09,01,11,34,13.40
2012,09,01,11,35,13.50
2012,09,01,11,36,13.50
2012,09,01,11,37,13.60
2012,09,01,11,38,13.60
2012,09,01,11,39,13.60
2012,09,01,11,40,13.60
2012,09,01,11,41,13.60
2012,09,01,11,42,13.70
2012,09,01,11,43,13.70
2012,09,01,11,44,13.70
2012,09,01,11,45,13.70
2012,09,01,11,46,13.70
2012,09,01,11,47,13.80
2012,09,01,11,48,13.80
2012,09,01,11,49,13.80
2012,09,01,11,50,13.70
2012,09,01,11,51,13.70
2012,09,01,11,52,13.60
2012,09,01,11,53,13.60
2012,09,01,11,54,13.60
2012,09,01,11,55,13.70
2012,09,01,11,56,13.70
2012,09,01,11,57,13.70
2012,09,01,11,58,13.70
2012,09,01,11,59,13.70
2012,09,01,12,00,13.70
2012,09,01,12,01,13.70
2012,09,01,12,02,13.70
2012,09,01,12,03,13.70
2012,09,01,12,04,13.70
2012,09,01,12,05,13.80
2012,09,01,12,06,13.80
2012,09,01,12,07,13.80
2012,09,01,12,08,13.80
2012,09,01,12,09,13.80
2012,09,01,12,10,13.80
2012,09,01,12,11,13.80
2012,09,01,12,12,13.80
2012,09,01,12,13,13.80
2012,09,01,12,14,13.90
2012,09,01,12,15,13.90
2012,09,01,12,16,13.90
2012,09,01,12,17,13.90
2012,09,01,12,18,13.90
2012,09,01,12,19,13.90
2012,09,01,12,20,13.90
2012,09,01,12,21,13.90
2012,09,01,12,22,13.80
2012,09,01,12,23,13.80
2012,09,01,12,24,13.80
2012,09,01,12,25,13.80
2012,09,01,12,26,13.80
2012,09,01,12,27,13.80
2012,09,01,12,28,13.80
2012,09,01,12,29,13.80
2012,09,01,12,30,13.90
2012,09,01,12,31,13.90
2012,09,01,12,32,13.90
2012,09,01,12,33,14.00
2012,09,01,12,34,14.00
2012,09,01,12,35,14.00
2012,09,01,12,36,14.00
2012,09,01,12,37,14.10
2012,09,01,12,38,14.20
2012,09,01,12,39,14.20
2012,09,01,12,40,14.20
2012,09,01,12,41,14.10
2012,09,01,12,42,14.10
2012,09,01,12,43,14.00
2012,09,01,12,44,14.00
2012,09,01,12,45,14.00
2012,09,01,12,46,14.00
2012,09,01,12,47,14.10
2012,09,01,12,48,14.10
2012,09,01,12,49,14.10
2012,09,01,12,50,14.10
2012,09,01,12,51,14.10
2012,09,01,12,52,14.10
2012,09,01,12,53,14.10
2012,09,01,12,54,14.10
2012,09,01,12,55,14.20
2012,09,01,12,56,14.20
2012,09,01,12,57,14.20
2012,09,01,12,58,14.20
2012,09,01,12,59,14.30
2012,09,01,13,00,14.30
2012,09,01,13,01,14.30
2012,09,01,13,02,14.30
2012,09,01,13,03,14.30
2012,09,01,13,04,14.30
2012,09,01,13,05,14.30
2012,09,01,13,06,14.20
2012,09,01,13,07,14.10
2012,09,01,13,08,14.10
2012,09,01,13,09,14.00
2012,09,01,13,10,14.00
2012,09,01,13,11,13.90
2012,09,01,13,12,13.90
2012,09,01,13,13,13.90
2012,09,01,13,14,13.80
2012,09,01,13,15,13.80
2012,09,01,13,16,13.80
2012,09,01,13,17,13.80
2012,09,01,13,18,13.80
2012,09,01,13,19,13.80
2012,09,01,13,20,13.80
2012,09,01,13,21,13.80
2012,09,01,13,22,13.70
2012,09,01,13,23,13.70
2012,09,01,13,24,13.70
2012,09,01,13,25,13.70
2012,09,01,13,26,13.70
2012,09,01,13,27,13.80
2012,09,01,13,28,13.90
2012,09,01,13,29,14.00
2012,09,01,13,30,14.00
2012,09,01,13,31,14.00
2012,09,01,13,32,14.10
2012,09,01,13,33,14.10
2012,09,01,13,34,14.10
2012,09,01,13,35,14.20
2012,09,01,13,36,14.30
2012,09,01,13,37,14.40
2012,09,01,13,38,14.50
2012,09,01,13,39,14.50
2012,09,01,13,40,14.60
2012,09,01,13,41,14.60
2012,09,01,13,42,14.60
2012,09,01,13,43,14.50
2012,09,01,13,44,14.50
2012,09,01,13,45,14.60
2012,09,01,13,46,14.60
2012,09,01,13,47,14.60
2012,09,01,13,48,14.60
2012,09,01,13,49,14.60
2012,09,01,13,50,14.60
2012,09,01,13,51,14.60
2012,09,01,13,52,14.60
2012,09,01,13,53,14.60
2012,09,01,13,54,14.60
2012,09,01,13,55,14.60
2012,09,01,13,56,14.60
2012,09,01,13,57,14.50
2012,09,01,13,58,14.60
2012,09,01,13,59,14.60
2012,09,01,14,00,14.60
2012,09,01,14,01,14.70
2012,09,01,14,02,14.60
2012,09,01,14,03,14.60
2012,09,01,14,04,14.60
2012,09,01,14,05,14.70
2012,09,01,14,06,14.70
2012,09,01,14,07,14.80
2012,09,01,14,08,14.80
2012,09,01,14,09,14.90
2012,09,01,14,10,14.80
2012,09,01,14,11,14.80
2012,09,01,14,12,14.70
2012,09,01,14,13,14.70
2012,09,01,14,14,14.60
2012,09,01,14,15,14.60
2012,09,01,14,16,14.70
2012,09,01,14,17,14.70
2012,09,01,14,18,14.70
2012,09,01,14,19,14.80
2012,09,01,14,20,14.80
2012,09,01,14,21,14.90
2012,09,01,14,22,15.00
2012,09,01,14,23,15.10
2012,09,01,14,24,15.10
2012,09,01,14,25,15.10
2012,09,01,14,26,15.10
2012,09,01,14,27,15.10
2012,09,01,14,28,15.20
2012,09,01,14,29,15.20
2012,09,01,14,30,15.20
2012,09,01,14,31,15.30
2012,09,01,14,32,15.30
2012,09,01,14,33,15.40
2012,09,01,14,34,15.40
2012,09,01,14,35,15.40
2012,09,01,14,36,15.40
2012,09,01,14,37,15.40
2012,09,01,14,38,15.50
2012,09,01,14,39,15.50
2012,09,01,14,40,15.60
2012,09,01,14,41,15.60
2012,09,01,14,42,15.70
2012,09,01,14,43,15.80
2012,09,01,14,44,15.80
2012,09,01,14,45,15.90
2012,09,01,14,46,15.90
2012,09,01,14,47,15.80
2012,09,01,14,48,15.80
2012,09,01,14,49,15.80
2012,09,01,14,50,15.70
2012,09,01,14,51,15.70
2012,09,01,14,52,15.70
2012,09,01,14,53,15.70
2012,09,01,14,54,15.70
2012,09,01,14,55,15.70
2012,09,01,14,56,15.70
2012,09,01,14,57,15.60
2012,09,01,14,58,15.70
2012,09,01,14,59,15.70
2012,09,01,15,00,15.70
2012,09,01,15,01,15.80
2012,09,01,15,02,15.70
2012,09,01,15,03,15.60
2012,09,01,15,04,15.60
2012,09,01,15,05,15.50
2012,09,01,15,06,15.40
2012,09,01,15,07,15.30
2012,09,01,15,08,15.10
2012,09,01,15,09,14.90
2012,09,01,15,10,14.70
2012,09,01,15,11,14.50
2012,09,01,15,12,14.50
2012,09,01,15,13,14.40
2012,09,01,15,14,14.40
2012,09,01,15,15,14.40
2012,09,01,15,16,14.40
2012,09,01,15,17,14.40
2012,09,01,15,18,14.40
2012,09,01,15,19,14.40
2012,09,01,15,20,14.40
2012,09,01,15,21,14.50
2012,09,01,15,22,14.60
2012,09,01,15,23,14.60
2012,09,01,15,24,14.60
2012,09,01,15,25,14.70
2012,09,01,15,26,14.70
2012,09,01,15,27,14.70
2012,09,01,15,28,14.80
2012,09,01,15,29,14.80
2012,09,01,15,30,14.90
2012,09,01,15,31,14.80
2012,09,01,15,32,14.70
2012,09,01,15,33,14.60
2012,09,01,15,34,14.60
2012,09,01,15,35,14.50
2012,09,01,15,36,14.40
2012,09,01,15,37,14.50
2012,09,01,15,38,14.50
2012,09,01,15,39,14.60
2012,09,01,15,40,14.60
2012,09,01,15,41,14.60
2012,09,01,15,42,14.60
2012,09,01,15,43,14.50
2012,09,01,15,44,14.50
2012,09,01,15,45,14.50
2012,09,01,15,46,14.50
2012,09,01,15,47,14.40
2012,09,01,15,48,14.30
2012,09,01,15,49,14.30
2012,09,01,15,50,14.30
2012,09,01,15,51,14.40
2012,09,01,15,52,14.40
2012,09,01,15,53,14.40
2012,09,01,15,54,14.40
2012,09,01,15,55,14.40
2012,09,01,15,56,14.50
2012,09,01,15,57,14.50
2012,09,01,15,58,14.50
2012,09,01,15,59,14.50
2012,09,01,16,00,14.60
2012,09,01,16,01,14.70
2012,09,01,16,02,14.70
2012,09,01,16,03,14.60
2012,09,01,16,04,14.60
2012,09,01,16,05,14.60
2012,09,01,16,06,14.70
2012,09,01,16,07,14.70
2012,09,01,16,08,14.70
2012,09,01,16,09,14.70
2012,09,01,16,10,14.70
2012,09,01,16,11,14.70
2012,09,01,16,12,14.70
2012,09,01,16,13,14.70
2012,09,01,16,14,14.70
2012,09,01,16,15,14.70
2012,09,01,16,16,14.70
2012,09,01,16,17,14.70
2012,09,01,16,18,14.70
2012,09,01,16,19,14.70
2012,09,01,16,20,14.80
2012,09,01,16,21,14.80
2012,09,01,16,22,14.80
2012,09,01,16,23,14.70
2012,09,01,16,24,14.80
2012,09,01,16,25,14.80
2012,09,01,16,26,14.80
2012,09,01,16,27,14.80
2012,09,01,16,28,14.80
2012,09,01,16,29,14.80
2012,09,01,16,30,14.80
2012,09,01,16,31,14.80
2012,09,01,16,32,14.90
2012,09,01,16,33,14.90
2012,09,01,16,34,14.90
2012,09,01,16,35,14.80
2012,09,01,16,36,14.70
2012,09,01,16,37,14.70
2012,09,01,16,38,14.70
2012,09,01,16,39,14.80
2012,09,01,16,40,14.80
2012,09,01,16,41,14.80
2012,09,01,16,42,14.90
2012,09,01,16,43,14.90
2012,09,01,16,44,14.90
2012,09,01,16,45,14.90
2012,09,01,16,46,14.90
2012,09,01,16,47,14.90
2012,09,01,16,48,14.90
2012,09,01,16,49,15.00
2012,09,01,16,50,14.90
2012,09,01,16,51,14.90
2012,09,01,16,52,14.90
2012,09,01,16,53,14.80
2012,09,01,16,54,14.80
2012,09,01,16,55,14.70
2012,09,01,16,56,14.60
2012,09,01,16,57,14.60
2012,09,01,16,58,14.50
2012,09,01,16,59,14.50
2012,09,01,17,00,14.40
2012,09,01,17,01,14.40
2012,09,01,17,02,14.30
2012,09,01,17,03,14.30
2012,09,01,17,04,14.40
2012,09,01,17,05,14.40
2012,09,01,17,06,14.40
2012,09,01,17,07,14.40
2012,09,01,17,08,14.50
2012,09,01,17,09,14.50
2012,09,01,17,10,14.50
2012,09,01,17,11,14.50
2012,09,01,17,12,14.60
2012,09,01,17,13,14.60
2012,09,01,17,14,14.60
2012,09,01,17,15,14.50
2012,09,01,17,16,14.60
2012,09,01,17,17,14.60
2012,09,01,17,18,14.70
2012,09,01,17,19,14.70
2012,09,01,17,20,14.80
2012,09,01,17,21,14.80
2012,09,01,17,22,14.80
2012,09,01,17,23,14.90
2012,09,01,17,24,14.90
2012,09,01,17,25,15.00
2012,09,01,17,26,15.00
2012,09,01,17,27,15.10
2012,09,01,17,28,15.00
2012,09,01,17,29,15.00